Regional Weather Roundup
Issued by NWS

Home | Current Version | Previous Version | Text Only | Print | Product List | Glossary Off
Versions: 1 2 3 4 5 6 7 8 9 10 11 12 13 14 15 16 17 18 19 20 21 22 23 24 25 26 27 28 29 30 31 32 33 34 35 36 37 38 39 40 41 42 43 44 45 46 47 48 49 50

000
ASUS43 KLOT 301100
RWRIL

ILLINOIS REGIONAL WEATHER ROUNDUP
NATIONAL WEATHER SERVICE CHICAGO/ROMEOVILLE IL
500 AM CST FRI JAN 30 2015

NOTE: "FAIR" INDICATES FEW OR NO CLOUDS BELOW 12,000 FEET WITH NO
SIGNIFICANT WEATHER AND/OR OBSTRUCTIONS TO VISIBILITY.

* THESE STATIONS ARE NOT UNDER NWS QUALITY CONTROL. THEY ALSO MAY NOT
  REPORT WEATHER SUCH AS PRECIPITATION OR FOG.

ILZ001-002-007-009-015-016-024-301200-
NORTHWEST ILLINOIS

CITY           SKY/WX    TMP DP  RH WIND       PRES   REMARKS
MOLINE         CLEAR     21  12  68 NW9       30.51R WCI  11
STERLING*      CLEAR     21  10  63 N10       30.48R WCI  10
$$

ILZ003-004-008-010-011-017-018-301200-
NORTH CENTRAL ILLINOIS

CITY           SKY/WX    TMP DP  RH WIND       PRES   REMARKS
ROCKFORD       CLEAR     20  10  65 N12       30.49R WCI   8
$$

ILZ005-006-012>014-019>023-301200-
NORTHEAST ILLINOIS

CITY           SKY/WX    TMP DP  RH WIND       PRES   REMARKS
CHICAGO-OHARE  FAIR      22   8  55 N10G20    30.43R WCI  11
CHICAGO-MIDWAY PTCLDY    25   9  50 N12       30.44R WCI  14
AURORA         MOCLDY    21  12  68 N7        30.44R WCI  12
WAUKEGAN       FAIR      20   9  62 NW7       30.43R WCI  11
DUPAGE AIRPORT CLOUDY    23  12  62 N6        30.43R WCI  16
WHEELING       CLEAR     21   8  57 N7        30.45R WCI  12
NORTHERLY ISL    N/A     25   9  50 NW13        N/A  WCI  14
$$

LMZ740>746-301200-
SOUTHERN LAKE MICHIGAN

STATION/POSITION SKY/WX   TEMP    WIND        PRES    VSBY  WAVE
                          AIR SEA DIR/SP/G                  HT/PER
                          (F)     (DEG/KT/KT) (MB)    (MI)  (FT/S)
WAUKEGAN HARBOR            22     330/ 10/ 15   N/A
HARRISON CRIB              26     330/ 21/ 25   N/A
BURNHAM HARBOR             26     320/ 12/ 18   N/A
CALUMET HARBOR             25     310/  9/ 12   N/A
MICHIGAN CITY              26     340/ 24/ 32   N/A
$$

ILZ025>027-034>036-040-047-049-050-058-095>099-301200-
WEST-CENTRAL ILLINOIS

CITY           SKY/WX    TMP DP  RH WIND       PRES   REMARKS
QUINCY         CLEAR     23  16  74 N8        30.51R WCI  14
$$

ILZ028>032-037-038-041>044-048-051>054-059>061-301200-
CENTRAL ILLINOIS

CITY           SKY/WX    TMP DP  RH WIND       PRES   REMARKS
DECATUR        CLEAR     28  19  69 NW13      30.46R WCI  17
PEORIA         CLEAR     25  16  68 NW7       30.49R WCI  17
SPRINGFIELD    CLEAR     27  18  69 NW10      30.49R WCI  17
TAYLORVILLE    NOT AVBL
$$

ILZ033-039-045-046-055>057-062-063-301200-
EAST-CENTRAL ILLINOIS

CITY           SKY/WX    TMP DP  RH WIND       PRES   REMARKS
CHAMPAIGN      PTCLDY    27  20  75 NW16      30.43R WCI  15
MATTOON        PTCLDY    28  21  75 N18       30.42R WCI  15
$$

ILZ079-100>102-301200-
SOUTHWEST ILLINOIS

CITY           SKY/WX    TMP DP  RH WIND       PRES   REMARKS
BELLEVILLE     CLOUDY    30  21  68 NW16      30.48R WCI  19
CAHOKIA*       CLOUDY    31  21  66 N16       30.50R WCI  20
$$

ILZ064>066-069>071-074>076-080>082-084>086-088>090-092>094-301200-
SOUTH-CENTRAL ILLINOIS

CITY           SKY/WX    TMP DP  RH WIND       PRES   REMARKS
CARBONDALE     CLOUDY    33  23  66 N9        30.46R WCI  25
MT. VERNON     CLOUDY    34  19  55 NW6       30.46R WCI  29
$$

ILZ067-068-072-073-078-083-087-091-301200-
SOUTHEAST ILLINOIS

CITY           SKY/WX    TMP DP  RH WIND       PRES   REMARKS
LAWRENCEVILLE  MOCLDY    32  22  66 NW15      30.43R WCI  22
$$

ABBREVIATIONS USED IN REMARKS
   TC - TEMPERATURE IN CELSIUS
  WCI - WIND CHILL INDEX
   HX - HEAT INDEX
  VSB - VISIBILITY
$$




USA.gov is the U.S. government's official web portal to all federal, state and local government web resources and services.